Weather History for Nantucket, MA

Change the Weather History Date:

Friday, December 9, 2011

  Actual Average Record
Temperature  
Mean Temperature 41 °F -  
Max Temperature 52 °F 47 °F 58 °F (1966)
Min Temperature 30 °F 32 °F 11 °F (1968)
Degree Days  
Heating Degree Days 24    
Moisture  
Dew Point 38 °F    
Average Humidity 77    
Maximum Humidity 92    
Minimum Humidity 61    
Precipitation  
Precipitation 0.00 in - - ()
Sea Level Pressure  
Sea Level Pressure 30.32 in    
Wind  
Wind Speed 7 mph (South)    
Max Wind Speed 15 mph    
Max Gust Speed -    
Visibility 10 miles    
Events      
Averages and records for this station are not official NWS values.
T = Trace of Precipitation, MM = Missing Value Source: NWS Daily Summary

Daily Weather History Graph

Daily Weather History Graph

Search for Another Location

Airport:

Trip Planner

Search our weather history database for the weather conditions in past years. The results will help you decide how hot, cold, wet, or windy it might be!

Date:

Astronomy

Dec. 09, 2011 Rise Set
Actual Time 6:53 AM EST 4:11 PM EST
Civil Twilight 6:22 AM EST 4:42 PM EST
Nautical Twilight 5:48 AM EST 5:16 PM EST
Astronomical Twilight 5:14 AM EST 5:50 PM EST
Moon 3:31 PM EST (12/9) 5:58 AM EST (12/9)
Length of Visible Light 10h 19m
Length of Day
9h 17m
Waxing Gibbous, 99% of the Moon is Illuminated
Dec 9
Waxing Gibbous
Dec 10
Full
Dec 17
Last Quarter
Dec 24
New
Jan 1
First Quarter

Hourly Weather History & Observations

Time (EST) Temp. Windchill Dew Point Humidity Pressure Visibility Wind Dir Wind Speed Gust Speed Precip Events Conditions
12:53 AM 37.0 °F 31.6 °F 28.0 °F 70% 30.32 in 10.0 mi WNW 6.9 mph - N/A   Clear
1:53 AM 37.0 °F - 28.9 °F 73% 30.35 in 10.0 mi Calm Calm - N/A   Clear
2:53 AM 37.0 °F 32.4 °F 30.9 °F 79% 30.35 in 10.0 mi NW 5.8 mph - N/A   Clear
3:53 AM 37.9 °F 34.4 °F 30.9 °F 76% 30.35 in 10.0 mi NW 4.6 mph - N/A   Clear
4:53 AM 35.6 °F - 28.4 °F 75% 30.34 in 10.0 mi Calm Calm - N/A   Clear
5:53 AM 30.0 °F - 27.0 °F 88% 30.35 in 10.0 mi Calm Calm - N/A   Clear
6:53 AM 30.0 °F - 28.0 °F 92% 30.37 in 10.0 mi Calm Calm - N/A   Clear
7:53 AM 37.0 °F 33.3 °F 30.0 °F 76% 30.37 in 10.0 mi East 4.6 mph - N/A   Clear
8:53 AM 48.0 °F - 37.0 °F 66% 30.38 in 10.0 mi South 11.5 mph - N/A   Partly Cloudy
9:53 AM 50.0 °F - 37.0 °F 61% 30.39 in 10.0 mi South 15.0 mph - N/A   Clear
10:53 AM 51.1 °F - 37.9 °F 61% 30.38 in 10.0 mi South 13.8 mph - N/A   Clear
11:53 AM 52.0 °F - 39.0 °F 61% 30.34 in 10.0 mi South 13.8 mph - N/A   Clear
12:53 PM 52.0 °F - 41.0 °F 66% 30.32 in 10.0 mi South 12.7 mph - N/A   Clear
1:53 PM 52.0 °F - 42.1 °F 69% 30.31 in 10.0 mi South 15.0 mph - N/A   Clear
2:53 PM 51.1 °F - 43.0 °F 74% 30.30 in 10.0 mi South 15.0 mph - N/A   Clear
3:53 PM 50.0 °F - 44.6 °F 82% 30.29 in 10.0 mi SSE 12.7 mph - N/A   Clear
4:53 PM 50.0 °F - 45.0 °F 83% 30.29 in 10.0 mi SSE 11.5 mph - N/A   Clear
5:53 PM 48.9 °F - 46.0 °F 90% 30.29 in 10.0 mi SSE 10.4 mph - N/A   Clear
6:53 PM 48.9 °F - 45.0 °F 86% 30.28 in 10.0 mi South 10.4 mph - N/A   Clear
7:53 PM 48.9 °F - 44.1 °F 83% 30.27 in 10.0 mi SSE 9.2 mph - N/A   Clear
8:53 PM 50.0 °F - 45.0 °F 83% 30.25 in 10.0 mi SSE 9.2 mph - N/A   Clear
9:53 PM 50.0 °F - 46.0 °F 86% 30.24 in 10.0 mi South 9.2 mph - N/A   Clear
10:53 PM 50.0 °F - 46.0 °F 86% 30.23 in 10.0 mi South 6.9 mph - N/A   Clear
11:53 PM 51.1 °F - 46.9 °F 86% 30.21 in 10.0 mi SSE 8.1 mph - N/A   Mostly Cloudy